Weather History for Appleton, MN

Change the Weather History Date:

Tuesday, October 28, 2014

  Actual Average Record
Temperature  
Mean Temperature 42 °F -  
Max Temperature 44 °F 48 °F 62 °F (1998)
Min Temperature 39 °F 30 °F 19 °F (2008)
Degree Days  
Heating Degree Days 24    
Moisture  
Dew Point 35 °F    
Average Humidity 76    
Maximum Humidity 87    
Minimum Humidity 61    
Precipitation  
Precipitation 0.01 in - - ()
Sea Level Pressure  
Sea Level Pressure 29.88 in    
Wind  
Wind Speed 14 mph (WNW)    
Max Wind Speed 26 mph    
Max Gust Speed 34 mph    
Visibility 10 miles    
Events Rain    
Averages and records for this station are not official NWS values.
T = Trace of Precipitation, MM = Missing Value Source: NWS Daily Summary

Daily Weather History Graph

Daily Weather History Graph

Search for Another Location

Airport:

Trip Planner

Search our weather history database for the weather conditions in past years. The results will help you decide how hot, cold, wet, or windy it might be!

Date:

Astronomy

Oct. 28, 2014 Rise Set
Actual Time 7:57 AM CDT 6:17 PM CDT
Civil Twilight 7:26 AM CDT 6:47 PM CDT
Nautical Twilight 6:52 AM CDT 7:22 PM CDT
Astronomical Twilight 6:18 AM CDT 7:56 PM CDT
Moon 12:32 PM CDT (10/28) 10:19 PM CDT (10/28)
Length of Visible Light 11h 20m
Length of Day
10h 19m
Waxing Crescent, 24% of the Moon is Illuminated
Oct 28
Waxing Crescent
Oct 30
First Quarter
Nov 6
Full
Nov 14
Last Quarter
Nov 22
New

Hourly Weather History & Observations

Time (CDT) Temp. Windchill Dew Point Humidity Pressure Visibility Wind Dir Wind Speed Gust Speed Precip Events Conditions
12:14 AM 41.0 °F 34.3 °F 35.6 °F 81% 29.74 in 10.0 mi West 11.5 mph - N/A   Clear
12:34 AM 39.2 °F 32.5 °F 35.6 °F 87% 29.74 in 10.0 mi West 10.4 mph - N/A   Clear
12:54 AM 39.2 °F 32.0 °F 35.6 °F 87% 29.74 in 10.0 mi West 11.5 mph - N/A   Clear
1:14 AM 39.2 °F 33.0 °F 33.8 °F 81% 29.75 in 10.0 mi West 9.2 mph - N/A   Clear
1:34 AM 39.2 °F 33.0 °F 35.6 °F 87% 29.75 in 10.0 mi West 9.2 mph - N/A   Clear
1:54 AM 39.2 °F 32.5 °F 35.6 °F 87% 29.75 in 10.0 mi West 10.4 mph - N/A   Clear
2:14 AM 39.2 °F 32.0 °F 35.6 °F 87% 29.75 in 10.0 mi West 11.5 mph - N/A   Mostly Cloudy
2:34 AM 39.2 °F 31.6 °F 35.6 °F 87% 29.75 in 10.0 mi West 12.7 mph - N/A   Mostly Cloudy
2:54 AM 41.0 °F 35.2 °F 37.4 °F 87% 29.75 in 10.0 mi West 9.2 mph - N/A   Overcast
3:14 AM 42.8 °F 37.0 °F 37.4 °F 81% 29.75 in 10.0 mi West 10.4 mph - N/A   Overcast
3:35 AM 42.8 °F 37.0 °F 37.4 °F 81% 29.74 in 10.0 mi West 10.4 mph - N/A   Overcast
3:54 AM 42.8 °F 37.0 °F 37.4 °F 81% 29.74 in 10.0 mi West 10.4 mph - N/A   Overcast
4:14 AM 42.8 °F 35.8 °F 37.4 °F 81% 29.74 in 10.0 mi West 13.8 mph - N/A   Overcast
4:34 AM 42.8 °F 35.1 °F 37.4 °F 81% 29.74 in 10.0 mi West 16.1 mph 20.7 mph N/A   Overcast
4:54 AM 42.8 °F 35.1 °F 37.4 °F 81% 29.74 in 10.0 mi West 16.1 mph - N/A   Overcast
5:14 AM 42.8 °F 35.8 °F 39.2 °F 87% 29.74 in 10.0 mi West 13.8 mph - N/A   Overcast
5:35 AM 42.8 °F 35.8 °F 39.2 °F 87% 29.75 in 10.0 mi West 13.8 mph - N/A   Light Drizzle
5:55 AM 42.8 °F 35.8 °F 39.2 °F 87% 29.75 in 10.0 mi West 13.8 mph - N/A   Overcast
6:14 AM 42.8 °F 36.2 °F 39.2 °F 87% 29.75 in 5.0 mi West 12.7 mph - N/A   Drizzle
6:35 AM 42.8 °F 36.2 °F 39.2 °F 87% 29.76 in 10.0 mi West 12.7 mph - N/A Rain Light Rain
6:55 AM 42.8 °F 35.4 °F 39.2 °F 87% 29.76 in 10.0 mi West 15.0 mph - N/A Rain Light Rain
7:14 AM 42.8 °F 34.8 °F 39.2 °F 87% 29.76 in 10.0 mi West 17.3 mph 24.2 mph N/A   Light Drizzle
7:35 AM 42.8 °F 34.8 °F 39.2 °F 87% 29.77 in 7.0 mi West 17.3 mph 25.3 mph N/A   Overcast
7:54 AM 42.8 °F 34.8 °F 39.2 °F 87% 29.77 in 5.0 mi West 17.3 mph 24.2 mph N/A   Overcast
8:15 AM 42.8 °F 35.1 °F 39.2 °F 87% 29.78 in 10.0 mi West 16.1 mph - N/A   Overcast
8:34 AM 42.8 °F 34.8 °F 39.2 °F 87% 29.79 in 10.0 mi West 17.3 mph 23.0 mph N/A   Overcast
8:54 AM 44.6 °F 37.2 °F 41.0 °F 87% 29.80 in 10.0 mi West 17.3 mph 24.2 mph 0.01 in   Overcast
9:14 AM 44.6 °F 36.9 °F 39.2 °F 81% 29.81 in 10.0 mi WNW 18.4 mph 26.5 mph N/A   Mostly Cloudy
9:34 AM 44.6 °F 36.9 °F 39.2 °F 81% 29.83 in 10.0 mi NW 18.4 mph 26.5 mph N/A   Mostly Cloudy
9:54 AM 44.6 °F 37.4 °F 39.2 °F 81% 29.84 in 10.0 mi NW 16.1 mph 25.3 mph N/A   Overcast
10:14 AM 42.8 °F 34.0 °F 39.2 °F 87% 29.85 in 7.0 mi WNW 20.7 mph 28.8 mph N/A Rain Rain
10:34 AM 42.8 °F 33.8 °F 39.2 °F 87% 29.86 in 10.0 mi WNW 21.9 mph 27.6 mph N/A   Overcast
10:54 AM 42.8 °F 33.8 °F 39.2 °F 87% 29.87 in 7.0 mi WNW 21.9 mph 29.9 mph N/A   Overcast
11:14 AM 42.8 °F 33.5 °F 37.4 °F 81% 29.88 in 10.0 mi WNW 23.0 mph 31.1 mph N/A   Overcast
11:34 AM 42.8 °F 34.5 °F 37.4 °F 81% 29.88 in 10.0 mi NW 18.4 mph 29.9 mph N/A   Overcast
11:54 AM 42.8 °F 34.3 °F 37.4 °F 81% 29.89 in 10.0 mi WNW 19.6 mph 28.8 mph N/A   Overcast
12:15 PM 44.6 °F 35.3 °F 35.6 °F 71% 29.90 in 10.0 mi NW 26.5 mph 34.5 mph N/A   Mostly Cloudy
12:34 PM 42.8 °F 34.3 °F 35.6 °F 76% 29.90 in 10.0 mi NW 19.6 mph 29.9 mph N/A   Mostly Cloudy
12:54 PM 42.8 °F 33.8 °F 35.6 °F 76% 29.91 in 10.0 mi WNW 21.9 mph 25.3 mph N/A   Mostly Cloudy
1:14 PM 42.8 °F 33.8 °F 33.8 °F 70% 20.24 in 10.0 mi NW 21.9 mph 29.9 mph N/A   Overcast
1:34 PM 42.8 °F 34.3 °F 33.8 °F 70% 29.91 in 10.0 mi WNW 19.6 mph 29.9 mph N/A   Overcast
1:54 PM 42.8 °F 33.5 °F 33.8 °F 70% 29.92 in 10.0 mi NW 23.0 mph 27.6 mph N/A   Overcast
2:15 PM 42.8 °F 34.8 °F 35.6 °F 76% 29.92 in 10.0 mi NW 17.3 mph 31.1 mph N/A   Overcast
2:34 PM 44.6 °F 35.5 °F 33.8 °F 66% 29.92 in 10.0 mi WNW 25.3 mph 29.9 mph N/A   Overcast
2:54 PM 44.6 °F 36.6 °F 33.8 °F 66% 29.93 in 10.0 mi NW 19.6 mph 24.2 mph N/A   Overcast
3:14 PM 42.8 °F 34.3 °F 33.8 °F 70% 29.93 in 10.0 mi NW 19.6 mph 27.6 mph N/A   Overcast
3:34 PM 42.8 °F 34.0 °F 33.8 °F 70% 29.94 in 10.0 mi NW 20.7 mph 26.5 mph N/A   Overcast
3:54 PM 42.8 °F 34.5 °F 32.0 °F 66% 29.95 in 10.0 mi WNW 18.4 mph 27.6 mph N/A   Overcast
4:14 PM 42.8 °F 34.3 °F 32.0 °F 66% 29.95 in 10.0 mi WNW 19.6 mph 27.6 mph N/A   Overcast
4:34 PM 42.8 °F 33.8 °F 32.0 °F 66% 29.96 in 10.0 mi WNW 21.9 mph 27.6 mph N/A   Overcast
4:54 PM 42.8 °F 34.5 °F 32.0 °F 66% 29.97 in 10.0 mi WNW 18.4 mph 28.8 mph N/A   Overcast
5:15 PM 42.8 °F 34.5 °F 30.2 °F 61% 29.97 in 10.0 mi WNW 18.4 mph 28.8 mph N/A   Overcast
5:34 PM 42.8 °F 34.0 °F 30.2 °F 61% 29.98 in 10.0 mi WNW 20.7 mph 26.5 mph N/A   Overcast
5:54 PM 42.8 °F 34.5 °F 30.2 °F 61% 29.98 in 10.0 mi WNW 18.4 mph 27.6 mph N/A   Overcast
6:14 PM 42.8 °F 34.8 °F 30.2 °F 61% 29.99 in 10.0 mi WNW 17.3 mph 24.2 mph N/A   Overcast
6:34 PM 42.8 °F 35.1 °F 30.2 °F 61% 29.99 in 10.0 mi WNW 16.1 mph 20.7 mph N/A   Overcast
6:55 PM 42.8 °F 35.8 °F 32.0 °F 66% 30.00 in 10.0 mi WNW 13.8 mph - N/A   Overcast
7:14 PM 42.8 °F 35.8 °F 32.0 °F 66% 30.01 in 10.0 mi NW 13.8 mph - N/A   Overcast
7:34 PM 42.8 °F 35.8 °F 32.0 °F 66% 30.01 in 10.0 mi NW 13.8 mph 19.6 mph N/A   Overcast
7:54 PM 42.8 °F 35.8 °F 32.0 °F 66% 30.02 in 10.0 mi WNW 13.8 mph - N/A   Overcast
8:14 PM 42.8 °F 36.6 °F 32.0 °F 66% 30.02 in 10.0 mi WNW 11.5 mph - N/A   Overcast
8:34 PM 42.8 °F 35.8 °F 32.0 °F 66% 30.02 in 10.0 mi WNW 13.8 mph - N/A   Overcast
8:55 PM 42.8 °F 35.8 °F 32.0 °F 66% 30.03 in 10.0 mi NW 13.8 mph 19.6 mph N/A   Overcast
9:14 PM 42.8 °F 34.8 °F 32.0 °F 66% 30.03 in 10.0 mi NW 17.3 mph 24.2 mph N/A   Overcast
9:34 PM 42.8 °F 36.2 °F 32.0 °F 66% 30.04 in 10.0 mi NW 12.7 mph - N/A   Overcast
9:54 PM 41.0 °F 33.9 °F 32.0 °F 70% 30.05 in 10.0 mi WNW 12.7 mph 18.4 mph N/A   Overcast
10:14 PM 42.8 °F 35.4 °F 32.0 °F 66% 30.05 in 10.0 mi NW 15.0 mph 23.0 mph N/A   Overcast
10:34 PM 42.8 °F 35.8 °F 32.0 °F 66% 30.05 in 10.0 mi NW 13.8 mph 20.7 mph N/A   Overcast
10:54 PM 41.0 °F 34.3 °F 32.0 °F 70% 30.06 in 10.0 mi NW 11.5 mph 16.1 mph N/A   Overcast
11:14 PM 41.0 °F 34.3 °F 32.0 °F 70% 30.07 in 10.0 mi NW 11.5 mph - N/A   Overcast
11:35 PM 39.2 °F 32.5 °F 32.0 °F 75% 30.07 in 10.0 mi NW 10.4 mph - N/A   Overcast
11:54 PM 39.2 °F 32.0 °F 32.0 °F 75% 30.07 in 10.0 mi NW 11.5 mph - N/A   Overcast